DECAYED
Showing default

UNICORN-2P, 63981 (Decayed)

Orbit data source: Space-Track

UNICORN-2P, 63981 was a payload satellite owned by Alba Orbital (DE) in LEO that was launched on Sat, 15 Mar 2025 UTC via an FALCON 9 launch vehicle from the Air Force Western Test Range (AFWTR). Payload-class satellites include a variety of spacecraft equipped with specific instruments for various scientific and technological missions. These include communications satellites like Starlink; space stations such as the ISS; scientific satellites like the Hubble; Earth observation satellites from companies like Planet Labs, Umbra, and HawkEye 360; GPS; miniature CubeSats for education and research; and military/defense satellites.

Not visible in the next 10 days
Identifier
63981, 2025-052BT
Orbit
Decayed
Country
Flag of DEDE / GER
Related business
Manufacturer
Alba Orbital
Mission
Decayed Commercial Imaging
Bus & Motor
POCKETQUBE 3P, Unknown motor
Mass
~0.75 kg wet, ~0.75 kg dry
Launch date (UTC)
2025-03-15 (1 year ago)
Launch vehicle
FALCON 9
Launch site
Air Force Western Test Range (AFWTR)
Object type
Payload
Rocket body
Debris
Shape & HBR
Box + 2 Pan, 0.2 m
Radar Cross Section
0.016 m², Small (<0.1 m²)

Expand to show TLE details & history
Last TLE update: 1 month ago

TLE from 1 month ago
0 UNICORN-2P
1 63981U 25052BT  26061.66207681  .09079400  24721-5  43819-2 0  9999
2 63981  97.3656 322.3272 0007474 166.9554 193.1930 16.21219791 54086
Epoch: 2026-03-02T15:53Z
TLE epoch observation values (Epoch: 2026-03-02T15:53:23.436Z)
Latitude
-0.00005°
Longitude
-76.47272°
Altitude
224.269 km
Speed
7.769 km/s
True Right ascension
21h 29m 18s
True Declination
0° 00' 00"
Sunlit
Object was in daylight at epoch
Visualization orbit readout
Latitude
Unknown
Longitude
Unknown
Altitude
Unknown
Speed
Unknown
Apparent Right ascension
Unknown
Apparent Declination
Unknown
Sunlit
N/A
Visualization observer readout
Local Sidereal Time
23:12:49
Azimuth
Unknown
Elevation
Unknown
Doppler factor
Unknown
Orbital elements
Apogee altitude
217.999 km
Perigee altitude
208.146 km
Semi-major axis
6,591.21 km
Eccentricity
0.00075
Inclination
97.3656°
RAAN
322.3272°
Arg. of periapsis
166.9554°
True anomaly
193.17347°
Mean anomaly
193.193°
Eccentric anomaly
193.18323°
Mean motion
4.05598 °/min
Orbital period
88.76 mins
BSTAR
0.0043819
Loading maneuver chart data...
Computing Atmospheric mass density...
Loading historical data...
Loading historical data...
Loading historical data...
Loading historical data...
Loading historical data...
Loading historical data...
Loading historical data...

Documentation

Showing up to 5 results
|